Regional Weather Roundup
Issued by NWS Boston, MA

Current Version | Previous Version | Text Only | Print | Product List | Glossary Off
Versions: 1 2 3 4 5 6 7 8 9 10 11 12 13 14 15 16 17 18 19 20 21 22 23 24 25 26 27 28 29 30 31 32 33 34 35 36 37 38 39 40 41 42 43 44 45 46 47 48 49 50
000 ASUS41 KBOX 281710 RWRBOX REGIONAL WEATHER ROUNDUP NATIONAL WEATHER SERVICE TAUNTON MA 100 PM EDT WED JUN 28 2017 NOTE: "FAIR" INDICATES FEW OR NO CLOUDS BELOW 12,000 FEET WITH NO SIGNIFICANT WEATHER AND/OR OBSTRUCTIONS TO VISIBILITY. MAZALL-281800- EASTERN MASSACHUSETTS CITY SKY/WX TMP DP RH WIND PRES REMARKS BOSTON MOSUNNY 73 50 44 W9 30.02S BEVERLY MOSUNNY 72 53 51 NW15G21 30.01R LAWRENCE MOSUNNY 73 51 46 W7 30.03S BEDFORD PTSUNNY 73 49 42 W8 30.01S BLUE HILL N/A 72 49 44 MISG 30.03R NORWOOD MOSUNNY 74 51 44 NW10G20 30.02S MARSHFIELD PTSUNNY 73 50 43 VRB7G16 30.02S PLYMOUTH MOSUNNY 75 48 38 W9G21 30.03S TAUNTON SUNNY 75 48 38 W9 30.03S NEW BEDFORD MOSUNNY 74 50 42 W8 30.03S $$ MAZALL-281800- CAPE COD AND THE ISLANDS CITY SKY/WX TMP DP RH WIND PRES REMARKS FALMOUTH MOSUNNY 73 52 46 SW10 30.04S HYANNIS MOSUNNY 73 55 53 NW6 30.01F CHATHAM PTSUNNY 73 57 57 SW10G17 30.05R PROVINCETOWN SUNNY 69 55 60 NW8 30.04S NANTUCKET SUNNY 70 57 63 W17 30.06R MARTHAS VNYRD SUNNY 73 52 47 W9 30.05S $$ MAZALL-281800- CENTRAL AND WESTERN MASSACHUSETTS CITY SKY/WX TMP DP RH WIND PRES REMARKS WORCESTER MOSUNNY 69 45 41 W14 30.06S FITCHBURG MOSUNNY 75 49 39 W9G20 30.04S ORANGE PTSUNNY 69 46 43 NW9 30.05R SPRINGFIELD PTSUNNY 75 47 36 W18 30.05R WESTFIELD MOSUNNY 74 47 38 W17G24 30.07S NORTH ADAMS PTSUNNY 69 48 47 W16G22 30.07S PITTSFIELD PTSUNNY 68 50 52 W12 30.09R $$ RIZALL-281800- RHODE ISLAND CITY SKY/WX TMP DP RH WIND PRES REMARKS PROVIDENCE MOSUNNY 75 47 36 NW14G26 30.05S NEWPORT SUNNY 74 51 44 VRB6 30.05S BLOCK ISLAND SUNNY 71 56 58 SW17 30.09R WESTERLY MOSUNNY 73 55 53 SW10 30.08R $$ CTZALL-281800- CONNECTICUT CITY SKY/WX TMP DP RH WIND PRES REMARKS BRADLEY INTL PTSUNNY 75 46 35 W14 30.07R HARTFORD MOSUNNY 75 47 36 N12G20 30.07S BRIDGEPORT MOSUNNY 78 51 38 W8 30.09S DANBURY PTSUNNY 73 52 47 W8G16 30.12S GROTON PTSUNNY 70 60 70 SW15 30.07R NEW HAVEN MOSUNNY 75 47 36 W12G20 30.09S CHESTER FAIR 73 45 35 VRB7G14 30.09R MERIDEN MOSUNNY 74 46 36 VRB7G23 30.08S WILLIMANTIC MOSUNNY 75 49 39 W12G17 30.07S OXFORD PTSUNNY 72 45 37 NW8G17 30.11S $$ MEZ002-015-021-024-NHZ003-005-008-011-012-014-VTZ005-008-281800- NORTHERN NEW ENGLAND CITY SKY/WX TMP DP RH WIND PRES REMARKS PORTLAND ME PTSUNNY 71 52 50 VRB6 29.97S BANGOR ME MOSUNNY 68 54 60 SW9 29.92F CONCORD NH PTSUNNY 73 50 44 W9 30.01S MANCHESTER NH PTSUNNY 74 44 34 W13G18 30.00S NASHUA NH PTSUNNY 73 50 44 W12G21 30.02S PORTSMOUTH NH MOSUNNY 74 49 42 W10G24 29.98S JAFFREY NH MOSUNNY 69 47 45 VRB7 30.05R KEENE NH PTSUNNY 71 48 43 W9 30.04R BURLINGTON VT MOSUNNY 71 53 52 SW12 30.00F MT. WASHINGTON FOG 37 37 100 W37 N/A VSB 0 WCI 24 $$ NYZ052-076-281800- EASTERN NEW YORK CITY SKY/WX TMP DP RH WIND PRES REMARKS ALBANY PTSUNNY 70 50 49 NW13 30.09R NEW YORK CITY MOSUNNY 75 48 38 W17G24 30.11F $$ ANZALL-281800- MARINE OBSERVATIONS STATION/POSITION TIME TEMP WIND PRES VSBY WAVE AIR SEA DIR/SP/G HT/PER (UTC) (F) (DEG/KT/KT) (MB) (MI) (FT/S) BOSTON BUOY 1650 63 61 190/ 4/ 6 1016.4S 1 BUZZARDS BAY 1600 63 230/ 14/ 15 1018.2R NANTUCKET SOUND 1650 67 1017.0F 1/ 3 MASS BAY-STELLWA 1604 64 61 260/ 8/ 10 1015.6R ISLE OF SHOALS 1600 66 300/ 14/ 15 1015.3R S OF BLOCK IS 1655 65 N/A 2/ 3 $$ ......................KEY......................... SKY/WX - SKY CONDITION/PRESENT WEATHER TMP - TEMPERATURE IN FAHRENHEIT DWPT - DEWPOINT IN FAHRENHEIT RH - RELATIVE HUMIDITY IN PERCENT WIND - DIRECTION AND SPEED IN MPH PRES - MEAN SEA LEVEL PRESSURE IN INCHES OF HG WCI - WIND CHILL INDEX VSB - VISIBILITY IN MILES HX - HEAT INDEX TC - TEMPERATURE IN CELSIUS VRB - VARIABLE WIND DIRECTION N/A - NOT AVAILABLE

USA.gov is the U.S. government's official web portal to all federal, state and local government web resources and services.